| time (UTC) | temp F | wind direction | speed MPH | gust MPH | rain 1hr in | rain 24hr in | rain mn in | humidity % | barometer mb |
| 20260902154006 | 72 | 266 | 0.0 | 4.0 | 0.00 | 0.00 | 0.00 | 78 | 1023.2 |
| 20260902153504 | 72 | 280 | 0.0 | 7.0 | 0.00 | 0.00 | 0.00 | 78 | 1023.3 |
| 20260902153029 | 72 | 342 | 0.0 | 7.0 | 0.00 | 0.00 | 0.00 | 78 | 1023.3 |
| 20260902152507 | 72 | 44 | 1.0 | 5.0 | 0.00 | 0.00 | 0.00 | 79 | 1023.2 |
| 20260902152006 | 71 | 359 | 0.0 | 4.0 | 0.00 | 0.00 | 0.00 | 81 | 1023.3 |
| 20260902151518 | 71 | 335 | 0.0 | 7.0 | 0.00 | 0.00 | 0.00 | 82 | 1023.3 |
| 20260902151012 | 71 | 335 | 0.0 | 7.0 | 0.00 | 0.00 | 0.00 | 81 | 1023.3 |
| 20260902150507 | 70 | 11 | 0.0 | 5.0 | 0.00 | 0.00 | 0.00 | 83 | 1023.3 |
| 20260902150025 | 70 | 6 | 0.0 | 3.0 | 0.00 | 0.00 | 0.00 | 87 | 1023.5 |
| 20260902145513 | 69 | 352 | 0.0 | 3.0 | 0.00 | 0.00 | 0.00 | 86 | 1023.5 |
| 20260902145014 | 69 | 352 | 0.0 | 3.0 | 0.00 | 0.00 | 0.00 | 87 | 1023.5 |
| 20260902144529 | 69 | 347 | 0.0 | 1.0 | 0.00 | 0.00 | 0.00 | 86 | 1023.6 |
| 20260902144016 | 68 | 341 | 0.0 | 2.0 | 0.00 | 0.00 | 0.00 | 87 | 1023.4 |
| 20260902143515 | 68 | 344 | 0.0 | 3.0 | 0.00 | 0.00 | 0.00 | 87 | 1023.2 |
| 20260902143033 | 68 | 238 | 0.0 | 3.0 | 0.00 | 0.00 | 0.00 | 88 | 1023.2 |
| 20260902142504 | 68 | 23 | 0.0 | 3.0 | 0.00 | 0.00 | 0.00 | 88 | 1023.1 |
| 20260902142005 | 68 | 1 | 0.0 | 3.0 | 0.00 | 0.00 | 0.00 | 88 | 1023.1 |
| 20260902141514 | 68 | 1 | 0.0 | 5.0 | 0.00 | 0.00 | 0.00 | 88 | 1023.1 |
| 20260902141007 | 67 | 333 | 0.0 | 5.0 | 0.00 | 0.00 | 0.00 | 90 | 1023.0 |
| 20260902140507 | 67 | 305 | 0.0 | 5.0 | 0.00 | 0.00 | 0.00 | 90 | 1022.9 |
| 20260902140019 | 67 | 342 | 0.0 | 5.0 | 0.00 | 0.01 | 0.00 | 90 | 1022.9 |
| 20260902135511 | 67 | 1 | 0.0 | 4.0 | 0.00 | 0.01 | 0.00 | 92 | 1022.7 |
| 20260902135012 | 66 | 2 | 0.0 | 4.0 | 0.00 | 0.01 | 0.00 | 93 | 1022.5 |
| 20260902134533 | 66 | 1 | 0.0 | 1.0 | 0.00 | 0.01 | 0.00 | 93 | 1022.6 |
| 20260902134014 | 66 | 1 | 0.0 | 2.0 | 0.00 | 0.01 | 0.00 | 94 | 1022.6 |
| 20260902133514 | 66 | 1 | 0.0 | 5.0 | 0.00 | 0.01 | 0.00 | 94 | 1022.5 |
| 20260902133028 | 65 | 1 | 0.0 | 5.0 | 0.00 | 0.01 | 0.00 | 95 | 1022.5 |
| 20260902132520 | 65 | 30 | 0.0 | 1.0 | 0.00 | 0.01 | 0.00 | 95 | 1022.6 |
| 20260902132014 | 65 | 30 | 0.0 | 1.0 | 0.00 | 0.01 | 0.00 | 95 | 1022.6 |
| 20260902131541 | 65 | 145 | 0.0 | 0.0 | 0.00 | 0.01 | 0.00 | 95 | 1022.5 |
| 20260902131004 | 64 | 145 | 0.0 | 0.0 | 0.00 | 0.01 | 0.00 | 95 | 1022.6 |
| 20260902130505 | 64 | 154 | 0.0 | 0.0 | 0.00 | 0.01 | 0.00 | 95 | 1022.8 |
| 20260902130014 | 64 | 154 | 0.0 | 0.0 | 0.00 | 0.01 | 0.00 | 95 | 1022.9 |
| 20260902125510 | 64 | 154 | 0.0 | 0.0 | 0.00 | 0.01 | 0.00 | 96 | 1022.9 |
| 20260902125008 | 64 | 154 | 0.0 | 0.0 | 0.00 | 0.01 | 0.00 | 96 | 1022.8 |
| 20260902124523 | 64 | 156 | 0.0 | 0.0 | 0.00 | 0.01 | 0.00 | 96 | 1022.8 |
| 20260902124011 | 64 | 156 | 0.0 | 0.0 | 0.00 | 0.01 | 0.00 | 96 | 1022.9 |
| 20260902123511 | 64 | 156 | 0.0 | 0.0 | 0.00 | 0.01 | 0.00 | 96 | 1022.9 |
| 20260902123033 | 63 | 156 | 0.0 | 0.0 | 0.00 | 0.01 | 0.00 | 96 | 1022.9 |
| 20260902122517 | 63 | 156 | 0.0 | 0.0 | 0.00 | 0.01 | 0.00 | 96 | 1022.9 |
| 20260902122014 | 63 | 156 | 0.0 | 0.0 | 0.00 | 0.01 | 0.00 | 96 | 1022.9 |
| 20260902121531 | 63 | 156 | 0.0 | 0.0 | 0.00 | 0.01 | 0.00 | 96 | 1022.9 |
| 20260902121020 | 63 | 156 | 0.0 | 0.0 | 0.00 | 0.01 | 0.00 | 96 | 1022.9 |
| 20260902120517 | 63 | 156 | 0.0 | 0.0 | 0.00 | 0.01 | 0.00 | 96 | 1022.8 |
| 20260902120033 | 63 | 156 | 0.0 | 0.0 | 0.00 | 0.01 | 0.00 | 96 | 1022.9 |
| 20260902115518 | 63 | 156 | 0.0 | 0.0 | 0.00 | 0.01 | 0.00 | 96 | 1023.0 |
| 20260902115009 | 63 | 156 | 0.0 | 0.0 | 0.00 | 0.01 | 0.00 | 96 | 1023.0 |
| 20260902114516 | 63 | 156 | 0.0 | 0.0 | 0.00 | 0.01 | 0.00 | 96 | 1023.1 |
| 20260902114010 | 63 | 156 | 0.0 | 0.0 | 0.00 | 0.01 | 0.00 | 96 | 1023.1 |
| 20260902113510 | 63 | 156 | 0.0 | 0.0 | 0.00 | 0.01 | 0.00 | 96 | 1023.1 |
| 20260902113029 | 63 | 156 | 0.0 | 0.0 | 0.00 | 0.01 | 0.00 | 96 | 1023.1 |
| 20260902112512 | 63 | 156 | 0.0 | 0.0 | 0.00 | 0.01 | 0.00 | 96 | 1023.1 |
| 20260902112012 | 63 | 156 | 0.0 | 0.0 | 0.00 | 0.01 | 0.00 | 96 | 1023.0 |
| 20260902111528 | 63 | 156 | 0.0 | 0.0 | 0.00 | 0.01 | 0.00 | 96 | 1022.9 |
| 20260902111016 | 63 | 156 | 0.0 | 0.0 | 0.00 | 0.01 | 0.00 | 96 | 1022.8 |
| 20260902110520 | 63 | 156 | 0.0 | 0.0 | 0.00 | 0.01 | 0.00 | 96 | 1022.8 |
| 20260902110005 | 63 | 156 | 0.0 | 0.0 | 0.00 | 0.01 | 0.00 | 96 | 1022.9 |
| 20260902105506 | 63 | 156 | 0.0 | 0.0 | 0.00 | 0.01 | 0.00 | 96 | 1022.8 |
| 20260902105004 | 63 | 156 | 0.0 | 0.0 | 0.00 | 0.01 | 0.00 | 96 | 1022.7 |
| 20260902104501 | 63 | 156 | 0.0 | 0.0 | 0.00 | 0.01 | 0.00 | 96 | 1022.5 |
| 20260902104004 | 63 | 156 | 0.0 | 0.0 | 0.00 | 0.01 | 0.00 | 96 | 1022.4 |
| 20260902103503 | 63 | 156 | 0.0 | 0.0 | 0.00 | 0.01 | 0.00 | 96 | 1022.3 |
| 20260902103006 | 63 | 156 | 0.0 | 0.0 | 0.00 | 0.01 | 0.00 | 96 | 1022.2 |
| 20260902102503 | 63 | 156 | 0.0 | 0.0 | 0.00 | 0.01 | 0.00 | 96 | 1022.3 |
| 20260902102003 | 63 | 156 | 0.0 | 0.0 | 0.00 | 0.01 | 0.00 | 96 | 1022.2 |
| 20260902101504 | 63 | 156 | 0.0 | 0.0 | 0.00 | 0.01 | 0.00 | 96 | 1022.1 |
| 20260902101004 | 63 | 156 | 0.0 | 0.0 | 0.00 | 0.01 | 0.00 | 96 | 1022.1 |
| 20260902100504 | 63 | 156 | 0.0 | 0.0 | 0.00 | 0.01 | 0.00 | 96 | 1022.0 |
| 20260902100007 | 63 | 156 | 0.0 | 0.0 | 0.00 | 0.01 | 0.00 | 96 | 1022.1 |
| 20260902095504 | 63 | 156 | 0.0 | 0.0 | 0.00 | 0.01 | 0.00 | 96 | 1022.1 |
| 20260902095003 | 63 | 156 | 0.0 | 0.0 | 0.00 | 0.01 | 0.00 | 96 | 1022.0 |
| 20260902094505 | 63 | 156 | 0.0 | 0.0 | 0.00 | 0.01 | 0.00 | 96 | 1021.9 |
| 20260902094004 | 63 | 156 | 0.0 | 0.0 | 0.00 | 0.01 | 0.00 | 96 | 1021.8 |
| 20260902093504 | 63 | 156 | 0.0 | 0.0 | 0.00 | 0.01 | 0.00 | 96 | 1021.8 |
| 20260902093004 | 63 | 156 | 0.0 | 0.0 | 0.00 | 0.01 | 0.00 | 96 | 1021.6 |
| 20260902092508 | 63 | 156 | 0.0 | 0.0 | 0.00 | 0.01 | 0.00 | 96 | 1021.7 |
| 20260902092005 | 63 | 156 | 0.0 | 0.0 | 0.00 | 0.01 | 0.00 | 96 | 1021.8 |
| 20260902091506 | 63 | 156 | 0.0 | 0.0 | 0.00 | 0.01 | 0.00 | 96 | 1021.7 |
| 20260902091006 | 63 | 156 | 0.0 | 0.0 | 0.00 | 0.01 | 0.00 | 96 | 1021.6 |
| 20260902090507 | 63 | 156 | 0.0 | 0.0 | 0.00 | 0.01 | 0.00 | 96 | 1021.6 |
| 20260902090007 | 63 | 156 | 0.0 | 0.0 | 0.00 | 0.01 | 0.00 | 96 | 1021.6 |
| 20260902085506 | 63 | 156 | 0.0 | 0.0 | 0.00 | 0.01 | 0.00 | 96 | 1021.6 |
| 20260902085003 | 63 | 156 | 0.0 | 0.0 | 0.00 | 0.01 | 0.00 | 96 | 1021.6 |
| 20260902084508 | 63 | 156 | 0.0 | 0.0 | 0.00 | 0.01 | 0.00 | 96 | 1021.6 |
| 20260902084006 | 63 | 156 | 0.0 | 0.0 | 0.00 | 0.01 | 0.00 | 96 | 1021.5 |
| 20260902083506 | 63 | 156 | 0.0 | 0.0 | 0.00 | 0.01 | 0.00 | 96 | 1021.2 |
| 20260902083005 | 63 | 156 | 0.0 | 0.0 | 0.00 | 0.01 | 0.00 | 96 | 1021.1 |
| 20260902082504 | 63 | 156 | 0.0 | 0.0 | 0.00 | 0.01 | 0.00 | 96 | 1021.1 |
| 20260902082003 | 63 | 156 | 0.0 | 0.0 | 0.00 | 0.01 | 0.00 | 96 | 1021.4 |
| 20260902081509 | 63 | 156 | 0.0 | 0.0 | 0.00 | 0.01 | 0.00 | 96 | 1021.5 |
| 20260902081005 | 63 | 156 | 0.0 | 0.0 | 0.00 | 0.01 | 0.00 | 96 | 1021.6 |
| 20260902080504 | 63 | 156 | 0.0 | 0.0 | 0.00 | 0.01 | 0.00 | 96 | 1021.6 |
| 20260902080006 | 63 | 156 | 0.0 | 0.0 | 0.00 | 0.01 | 0.00 | 96 | 1021.6 |
| 20260902075504 | 63 | 156 | 0.0 | 0.0 | 0.00 | 0.01 | 0.00 | 96 | 1021.7 |
| 20260902075004 | 63 | 156 | 0.0 | 0.0 | 0.00 | 0.01 | 0.00 | 96 | 1021.7 |
| 20260902074508 | 63 | 156 | 0.0 | 0.0 | 0.00 | 0.01 | 0.00 | 96 | 1021.7 |
| 20260902074004 | 63 | 156 | 0.0 | 0.0 | 0.00 | 0.01 | 0.00 | 96 | 1021.8 |
| 20260902073504 | 63 | 156 | 0.0 | 0.0 | 0.00 | 0.01 | 0.00 | 96 | 1021.8 |
| 20260902073014 | 63 | 156 | 0.0 | 0.0 | 0.00 | 0.01 | 0.00 | 96 | 1021.9 |
| 20260902072505 | 63 | 156 | 0.0 | 0.0 | 0.00 | 0.01 | 0.00 | 96 | 1022.0 |
| 20260902072006 | 63 | 156 | 0.0 | 0.0 | 0.00 | 0.01 | 0.00 | 96 | 1022.0 |
| 20260902071509 | 63 | 156 | 0.0 | 0.0 | 0.00 | 0.01 | 0.00 | 96 | 1021.9 |
| 20260902071006 | 63 | 156 | 0.0 | 0.0 | 0.00 | 0.01 | 0.00 | 96 | 1021.6 |
| 20260902070504 | 63 | 156 | 0.0 | 0.0 | 0.00 | 0.01 | 0.00 | 96 | 1021.5 |
| 20260902070013 | 63 | 156 | 0.0 | 0.0 | 0.00 | 0.01 | 0.00 | 96 | 1021.4 |
| 20260902065505 | 63 | 156 | 0.0 | 0.0 | 0.00 | 0.01 | 0.00 | 96 | 1021.4 |
| 20260902065007 | 63 | 156 | 0.0 | 0.0 | 0.00 | 0.01 | 0.00 | 96 | 1021.4 |
| 20260902064508 | 63 | 156 | 0.0 | 0.0 | 0.00 | 0.01 | 0.00 | 96 | 1021.4 |
| 20260902064003 | 63 | 156 | 0.0 | 0.0 | 0.00 | 0.01 | 0.00 | 96 | 1021.4 |
| 20260902063509 | 63 | 156 | 0.0 | 0.0 | 0.00 | 0.01 | 0.00 | 96 | 1021.5 |
| 20260902063011 | 63 | 156 | 0.0 | 0.0 | 0.00 | 0.01 | 0.00 | 96 | 1021.5 |
| 20260902062507 | 63 | 156 | 0.0 | 0.0 | 0.00 | 0.01 | 0.00 | 96 | 1021.5 |
| 20260902062004 | 63 | 156 | 0.0 | 0.0 | 0.00 | 0.01 | 0.00 | 96 | 1021.5 |
| 20260902061529 | 63 | 156 | 0.0 | 0.0 | 0.00 | 0.01 | 0.00 | 96 | 1021.5 |
| 20260902061007 | 63 | 156 | 0.0 | 0.0 | 0.00 | 0.01 | 0.00 | 96 | 1021.5 |
| 20260902060507 | 63 | 156 | 0.0 | 0.0 | 0.00 | 0.01 | 0.00 | 96 | 1021.5 |
| 20260902060012 | 63 | 156 | 0.0 | 0.0 | 0.00 | 0.01 | 0.00 | 96 | 1021.6 |
| 20260902055505 | 63 | 156 | 0.0 | 0.0 | 0.00 | 0.01 | 0.00 | 96 | 1021.5 |
| 20260902055008 | 63 | 156 | 0.0 | 0.0 | 0.00 | 0.01 | 0.00 | 96 | 1021.6 |
| 20260902054517 | 63 | 156 | 0.0 | 0.0 | 0.00 | 0.01 | 0.00 | 96 | 1021.5 |
| 20260902054005 | 63 | 156 | 0.0 | 0.0 | 0.00 | 0.01 | 0.00 | 96 | 1021.4 |
| 20260902053507 | 63 | 156 | 0.0 | 0.0 | 0.00 | 0.01 | 0.00 | 96 | 1021.4 |
| 20260902053014 | 63 | 156 | 0.0 | 0.0 | 0.00 | 0.01 | 0.00 | 96 | 1021.5 |
| 20260902052504 | 63 | 156 | 0.0 | 0.0 | 0.00 | 0.01 | 0.00 | 96 | 1021.5 |
| 20260902052007 | 63 | 156 | 0.0 | 0.0 | 0.00 | 0.01 | 0.00 | 96 | 1021.4 |
| 20260902051512 | 63 | 156 | 0.0 | 0.0 | 0.00 | 0.01 | 0.00 | 96 | 1021.3 |
| 20260902051014 | 63 | 156 | 0.0 | 0.0 | 0.00 | 0.01 | 0.00 | 96 | 1021.2 |
| 20260902050506 | 63 | 156 | 0.0 | 0.0 | 0.00 | 0.01 | 0.00 | 96 | 1021.2 |
| 20260902050017 | 63 | 156 | 0.0 | 0.0 | 0.00 | 0.01 | 0.00 | 96 | 1021.1 |
| 20260902045507 | 63 | 156 | 0.0 | 0.0 | 0.00 | 0.01 | 0.00 | 96 | 1021.0 |
| 20260902045002 | 63 | 156 | 0.0 | 0.0 | 0.00 | 0.01 | 0.00 | 96 | 1020.9 |
| 20260902044503 | 63 | 156 | 0.0 | 0.0 | 0.00 | 0.01 | 0.00 | 96 | 1020.8 |
| 20260902044004 | 63 | 156 | 0.0 | 0.0 | 0.00 | 0.01 | 0.00 | 96 | 1020.8 |
| 20260902043503 | 63 | 156 | 0.0 | 0.0 | 0.00 | 0.01 | 0.00 | 96 | 1020.7 |
| 20260902043004 | 63 | 156 | 0.0 | 0.0 | 0.00 | 0.01 | 0.00 | 96 | 1020.7 |
| 20260902042503 | 63 | 156 | 0.0 | 0.0 | 0.00 | 0.01 | 0.00 | 96 | 1020.7 |
| 20260902042004 | 63 | 156 | 0.0 | 0.0 | 0.00 | 0.01 | 0.00 | 96 | 1020.7 |
| 20260902041506 | 63 | 156 | 0.0 | 0.0 | 0.00 | 0.01 | 0.00 | 96 | 1020.6 |
| 20260902041004 | 63 | 156 | 0.0 | 0.0 | 0.00 | 0.01 | 0.00 | 96 | 1020.6 |
| 20260902040505 | 63 | 156 | 0.0 | 0.0 | 0.00 | 0.01 | 0.00 | 96 | 1020.5 |
| 20260902040013 | 63 | 156 | 0.0 | 0.0 | 0.00 | 0.01 | 0.00 | 95 | 1020.5 |
| 20260902035506 | 63 | 156 | 0.0 | 0.0 | 0.00 | 0.01 | 0.01 | 95 | 1020.3 |
| 20260902035007 | 63 | 156 | 0.0 | 0.0 | 0.00 | 0.01 | 0.01 | 95 | 1020.2 |
| 20260902034516 | 63 | 156 | 0.0 | 0.0 | 0.00 | 0.01 | 0.01 | 95 | 1020.2 |
| 20260902034007 | 63 | 156 | 0.0 | 0.0 | 0.00 | 0.01 | 0.01 | 95 | 1020.1 |
| 20260902033510 | 63 | 156 | 0.0 | 0.0 | 0.00 | 0.01 | 0.01 | 96 | 1019.9 |
| 20260902033003 | 63 | 156 | 0.0 | 0.0 | 0.00 | 0.01 | 0.01 | 96 | 1019.8 |
| 20260902032504 | 63 | 156 | 0.0 | 0.0 | 0.00 | 0.01 | 0.01 | 96 | 1019.8 |
| 20260902032002 | 63 | 156 | 0.0 | 0.0 | 0.00 | 0.01 | 0.01 | 96 | 1019.9 |
| 20260902031507 | 63 | 156 | 0.0 | 0.0 | 0.00 | 0.01 | 0.01 | 96 | 1019.9 |
| 20260902031004 | 63 | 156 | 0.0 | 0.0 | 0.00 | 0.01 | 0.01 | 96 | 1020.0 |
| 20260902030506 | 64 | 156 | 0.0 | 0.0 | 0.00 | 0.01 | 0.01 | 96 | 1020.1 |
| 20260902030007 | 64 | 156 | 0.0 | 0.0 | 0.00 | 0.01 | 0.01 | 96 | 1020.1 |
| 20260902025505 | 64 | 156 | 0.0 | 0.0 | 0.00 | 0.01 | 0.01 | 96 | 1020.1 |
| 20260902025004 | 64 | 156 | 0.0 | 0.0 | 0.00 | 0.01 | 0.01 | 96 | 1020.2 |
| 20260902024512 | 64 | 156 | 0.0 | 0.0 | 0.00 | 0.01 | 0.01 | 96 | 1020.1 |
| 20260902024005 | 64 | 156 | 0.0 | 0.0 | 0.00 | 0.01 | 0.01 | 96 | 1020.1 |
| 20260902023507 | 64 | 156 | 0.0 | 0.0 | 0.00 | 0.01 | 0.01 | 96 | 1020.1 |
| 20260902023018 | 64 | 156 | 0.0 | 0.0 | 0.00 | 0.01 | 0.01 | 96 | 1020.1 |
| 20260902022510 | 64 | 156 | 0.0 | 0.0 | 0.00 | 0.01 | 0.01 | 96 | 1020.2 |
| 20260902022011 | 64 | 156 | 0.0 | 0.0 | 0.00 | 0.01 | 0.01 | 96 | 1020.4 |
| 20260902021521 | 64 | 156 | 0.0 | 0.0 | 0.00 | 0.01 | 0.01 | 96 | 1020.3 |
| 20260902021006 | 64 | 156 | 0.0 | 0.0 | 0.00 | 0.01 | 0.01 | 96 | 1020.2 |
| 20260902020504 | 64 | 156 | 0.0 | 0.0 | 0.00 | 0.01 | 0.01 | 96 | 1020.1 |
| 20260902020006 | 64 | 156 | 0.0 | 0.0 | 0.00 | 0.01 | 0.01 | 95 | 1020.1 |
| 20260902015504 | 64 | 156 | 0.0 | 0.0 | 0.00 | 0.01 | 0.01 | 95 | 1019.9 |
| 20260902015005 | 64 | 156 | 0.0 | 0.0 | 0.00 | 0.01 | 0.01 | 95 | 1019.8 |
| 20260902014507 | 64 | 156 | 0.0 | 0.0 | 0.00 | 0.01 | 0.01 | 95 | 1019.9 |
| 20260902014007 | 64 | 156 | 0.0 | 0.0 | 0.00 | 0.01 | 0.01 | 95 | 1020.0 |
| 20260902013506 | 64 | 156 | 0.0 | 0.0 | 0.00 | 0.01 | 0.01 | 95 | 1020.0 |
| 20260902013014 | 64 | 156 | 0.0 | 0.0 | 0.00 | 0.01 | 0.01 | 95 | 1020.0 |
| 20260902012507 | 64 | 156 | 0.0 | 0.0 | 0.00 | 0.01 | 0.01 | 95 | 1020.0 |
| 20260902012009 | 64 | 156 | 0.0 | 0.0 | 0.00 | 0.01 | 0.01 | 95 | 1020.1 |
| 20260902011527 | 64 | 156 | 0.0 | 0.0 | 0.00 | 0.01 | 0.01 | 95 | 1020.0 |
| 20260902011010 | 64 | 156 | 0.0 | 0.0 | 0.00 | 0.01 | 0.01 | 95 | 1020.0 |
| 20260902010511 | 64 | 156 | 0.0 | 0.0 | 0.00 | 0.01 | 0.01 | 95 | 1020.1 |
| 20260902010026 | 64 | 156 | 0.0 | 0.0 | 0.00 | 0.01 | 0.01 | 95 | 1020.1 |
| 20260902005503 | 64 | 156 | 0.0 | 0.0 | 0.00 | 0.01 | 0.01 | 95 | 1020.0 |
| 20260902005005 | 64 | 156 | 0.0 | 0.0 | 0.00 | 0.01 | 0.01 | 95 | 1020.0 |
| 20260902004507 | 64 | 156 | 0.0 | 0.0 | 0.00 | 0.01 | 0.01 | 95 | 1019.9 |
| 20260902004004 | 64 | 156 | 0.0 | 0.0 | 0.00 | 0.01 | 0.01 | 95 | 1019.8 |
| 20260902003506 | 64 | 156 | 0.0 | 0.0 | 0.00 | 0.01 | 0.01 | 95 | 1019.8 |
| 20260902003011 | 64 | 156 | 0.0 | 0.0 | 0.00 | 0.01 | 0.01 | 95 | 1019.7 |
| 20260902002507 | 64 | 156 | 0.0 | 0.0 | 0.00 | 0.01 | 0.01 | 95 | 1019.8 |
| 20260902002008 | 64 | 156 | 0.0 | 0.0 | 0.00 | 0.01 | 0.01 | 95 | 1019.8 |
| 20260902001534 | 64 | 156 | 0.0 | 0.0 | 0.00 | 0.01 | 0.01 | 95 | 1019.6 |
| 20260902001008 | 64 | 156 | 0.0 | 0.0 | 0.00 | 0.01 | 0.01 | 95 | 1019.5 |
| 20260902000510 | 64 | 156 | 0.0 | 0.0 | 0.00 | 0.01 | 0.01 | 95 | 1019.5 |
| 20260902000029 | 64 | 156 | 0.0 | 0.0 | 0.00 | 0.01 | 0.01 | 95 | 1019.5 |
| 20260901235513 | 64 | 156 | 0.0 | 0.0 | 0.00 | 0.01 | 0.01 | 95 | 1019.4 |
| 20260901235013 | 64 | 156 | 0.0 | 0.0 | 0.00 | 0.01 | 0.01 | 95 | 1019.4 |
| 20260901234529 | 64 | 156 | 0.0 | 0.0 | 0.00 | 0.01 | 0.01 | 95 | 1019.4 |
| 20260901234017 | 64 | 156 | 0.0 | 0.0 | 0.00 | 0.01 | 0.01 | 95 | 1019.5 |
| 20260901233504 | 64 | 156 | 0.0 | 0.0 | 0.00 | 0.01 | 0.01 | 95 | 1019.5 |
| 20260901233008 | 64 | 156 | 0.0 | 0.0 | 0.00 | 0.01 | 0.01 | 95 | 1019.6 |
| 20260901232506 | 64 | 156 | 0.0 | 0.0 | 0.00 | 0.01 | 0.01 | 95 | 1019.7 |
| 20260901232007 | 64 | 156 | 0.0 | 0.0 | 0.00 | 0.01 | 0.01 | 95 | 1019.7 |
| 20260901231515 | 64 | 156 | 0.0 | 0.0 | 0.00 | 0.01 | 0.01 | 95 | 1019.7 |
| 20260901231011 | 64 | 156 | 0.0 | 0.0 | 0.00 | 0.01 | 0.01 | 95 | 1019.7 |
| 20260901230511 | 64 | 156 | 0.0 | 0.0 | 0.00 | 0.01 | 0.01 | 94 | 1019.7 |
| 20260901230023 | 64 | 156 | 0.0 | 0.0 | 0.00 | 0.01 | 0.01 | 94 | 1019.5 |
| 20260901225511 | 64 | 156 | 0.0 | 0.0 | 0.00 | 0.01 | 0.01 | 94 | 1019.5 |
| 20260901225014 | 64 | 156 | 0.0 | 0.0 | 0.00 | 0.01 | 0.01 | 94 | 1019.5 |
| 20260901224526 | 64 | 156 | 0.0 | 0.0 | 0.00 | 0.01 | 0.01 | 94 | 1019.5 |
| 20260901224012 | 64 | 156 | 0.0 | 0.0 | 0.00 | 0.01 | 0.01 | 94 | 1019.5 |
| 20260901223512 | 64 | 156 | 0.0 | 0.0 | 0.00 | 0.01 | 0.01 | 93 | 1019.4 |
| 20260901223032 | 64 | 156 | 0.0 | 0.0 | 0.00 | 0.01 | 0.01 | 93 | 1019.4 |
| 20260901222514 | 64 | 156 | 0.0 | 0.0 | 0.00 | 0.01 | 0.01 | 93 | 1019.4 |
| 20260901222014 | 64 | 156 | 0.0 | 0.0 | 0.00 | 0.01 | 0.01 | 93 | 1019.4 |
| 20260901221512 | 64 | 156 | 0.0 | 0.0 | 0.00 | 0.01 | 0.01 | 93 | 1019.4 |
| 20260901221005 | 64 | 156 | 0.0 | 2.0 | 0.00 | 0.01 | 0.01 | 93 | 1019.4 |
| 20260901220505 | 65 | 172 | 0.0 | 3.0 | 0.00 | 0.01 | 0.01 | 93 | 1019.4 |
| 20260901220020 | 65 | 200 | 0.0 | 3.0 | 0.00 | 0.01 | 0.01 | 93 | 1019.3 |
| 20260901215511 | 65 | 200 | 0.0 | 0.0 | 0.00 | 0.01 | 0.01 | 94 | 1019.3 |
| 20260901215011 | 65 | 143 | 0.0 | 0.0 | 0.00 | 0.01 | 0.01 | 93 | 1019.3 |
| 20260901214524 | 65 | 191 | 0.0 | 0.0 | 0.00 | 0.01 | 0.01 | 94 | 1019.2 |
| 20260901214014 | 65 | 192 | 0.0 | 0.0 | 0.00 | 0.01 | 0.01 | 93 | 1019.1 |
| 20260901213515 | 65 | 192 | 0.0 | 8.0 | 0.00 | 0.01 | 0.01 | 93 | 1019.1 |
| 20260901213028 | 65 | 191 | 2.0 | 8.0 | 0.00 | 0.01 | 0.01 | 93 | 1019.0 |
| 20260901212514 | 66 | 195 | 0.0 | 5.0 | 0.00 | 0.01 | 0.01 | 94 | 1018.9 |
| 20260901212018 | 66 | 4 | 0.0 | 0.0 | 0.00 | 0.01 | 0.01 | 94 | 1019.1 |
| 20260901211530 | 66 | 4 | 0.0 | 0.0 | 0.00 | 0.01 | 0.01 | 94 | 1019.0 |
| 20260901211016 | 66 | 4 | 0.0 | 0.0 | 0.00 | 0.01 | 0.01 | 94 | 1018.9 |
| 20260901210519 | 66 | 4 | 0.0 | 3.0 | 0.00 | 0.01 | 0.01 | 95 | 1018.9 |
| 20260901210012 | 66 | 4 | 0.0 | 3.0 | 0.00 | 0.01 | 0.01 | 95 | 1018.8 |
| 20260901205506 | 66 | 4 | 0.0 | 0.0 | 0.00 | 0.01 | 0.01 | 95 | 1018.7 |
| 20260901205008 | 66 | 4 | 0.0 | 0.0 | 0.00 | 0.01 | 0.01 | 95 | 1018.6 |
| 20260901204518 | 66 | 4 | 0.0 | 0.0 | 0.00 | 0.01 | 0.01 | 95 | 1018.5 |
| 20260901204012 | 66 | 4 | 0.0 | 0.0 | 0.00 | 0.01 | 0.01 | 95 | 1018.5 |
| 20260901203510 | 66 | 4 | 0.0 | 0.0 | 0.00 | 0.01 | 0.01 | 95 | 1018.6 |
| 20260901203028 | 66 | 4 | 0.0 | 0.0 | 0.00 | 0.01 | 0.01 | 95 | 1018.5 |
| 20260901202515 | 66 | 4 | 0.0 | 0.0 | 0.00 | 0.01 | 0.01 | 95 | 1018.5 |
| 20260901202013 | 66 | 4 | 0.0 | 0.0 | 0.00 | 0.01 | 0.01 | 95 | 1018.5 |
| 20260901201529 | 66 | 4 | 0.0 | 0.0 | 0.00 | 0.01 | 0.01 | 95 | 1018.4 |
| 20260901201015 | 66 | 4 | 0.0 | 0.0 | 0.00 | 0.01 | 0.01 | 95 | 1018.4 |
| 20260901200514 | 66 | 3 | 0.0 | 0.0 | 0.00 | 0.01 | 0.01 | 95 | 1018.4 |
| 20260901200012 | 66 | 3 | 0.0 | 0.0 | 0.00 | 0.01 | 0.01 | 95 | 1018.5 |
| 20260901195505 | 66 | 4 | 0.0 | 0.0 | 0.00 | 0.01 | 0.01 | 95 | 1018.5 |
| 20260901195007 | 66 | 4 | 0.0 | 0.0 | 0.00 | 0.01 | 0.01 | 95 | 1018.4 |
| 20260901194515 | 66 | 4 | 0.0 | 0.0 | 0.00 | 0.01 | 0.01 | 95 | 1018.5 |
| 20260901194008 | 66 | 1 | 0.0 | 0.0 | 0.00 | 0.01 | 0.01 | 95 | 1018.5 |
| 20260901193512 | 66 | 1 | 0.0 | 0.0 | 0.00 | 0.01 | 0.01 | 95 | 1018.4 |
| 20260901193024 | 66 | 1 | 0.0 | 0.0 | 0.00 | 0.01 | 0.01 | 95 | 1018.5 |
| 20260901192502 | 66 | 1 | 0.0 | 0.0 | 0.00 | 0.01 | 0.01 | 95 | 1018.5 |
| 20260901192002 | 66 | 1 | 0.0 | 0.0 | 0.00 | 0.01 | 0.01 | 95 | 1018.5 |
| 20260901191506 | 66 | 1 | 0.0 | 0.0 | 0.00 | 0.01 | 0.01 | 95 | 1018.6 |
| 20260901191005 | 66 | 1 | 0.0 | 0.0 | 0.00 | 0.01 | 0.01 | 95 | 1018.6 |
| 20260901190506 | 66 | 1 | 0.0 | 0.0 | 0.00 | 0.01 | 0.01 | 95 | 1018.6 |
| 20260901190010 | 66 | 6 | 0.0 | 0.0 | 0.00 | 0.01 | 0.01 | 95 | 1018.6 |
| 20260901185505 | 66 | 6 | 0.0 | 0.0 | 0.00 | 0.01 | 0.01 | 95 | 1018.6 |
| 20260901185003 | 66 | 6 | 0.0 | 0.0 | 0.00 | 0.01 | 0.01 | 95 | 1018.6 |
| 20260901184513 | 66 | 6 | 0.0 | 0.0 | 0.00 | 0.01 | 0.01 | 95 | 1018.6 |
| 20260901184018 | 66 | 25 | 0.0 | 0.0 | 0.00 | 0.01 | 0.01 | 95 | 1018.7 |
| 20260901183509 | 66 | 25 | 0.0 | 0.0 | 0.00 | 0.01 | 0.01 | 95 | 1018.6 |
| 20260901183018 | 66 | 25 | 0.0 | 0.0 | 0.00 | 0.01 | 0.01 | 95 | 1018.7 |
| 20260901182512 | 66 | 353 | 0.0 | 0.0 | 0.00 | 0.01 | 0.01 | 95 | 1018.8 |
| 20260901182012 | 66 | 353 | 0.0 | 0.0 | 0.00 | 0.01 | 0.01 | 95 | 1018.7 |
| 20260901181526 | 66 | 353 | 0.0 | 0.0 | 0.00 | 0.01 | 0.01 | 95 | 1018.7 |
| 20260901181004 | 65 | 353 | 0.0 | 0.0 | 0.00 | 0.01 | 0.01 | 95 | 1018.6 |
| 20260901180504 | 65 | 353 | 0.0 | 0.0 | 0.00 | 0.01 | 0.01 | 95 | 1018.6 |
| 20260901180006 | 65 | 353 | 0.0 | 0.0 | 0.00 | 0.01 | 0.01 | 95 | 1018.5 |
| 20260901175504 | 65 | 353 | 0.0 | 0.0 | 0.00 | 0.01 | 0.01 | 95 | 1018.3 |
| 20260901175004 | 65 | 353 | 0.0 | 0.0 | 0.00 | 0.01 | 0.01 | 95 | 1018.3 |
| 20260901174510 | 65 | 353 | 0.0 | 4.0 | 0.00 | 0.01 | 0.01 | 95 | 1018.2 |
| 20260901174007 | 65 | 342 | 0.0 | 4.0 | 0.00 | 0.01 | 0.01 | 94 | 1018.1 |
| 20260901173507 | 65 | 51 | 0.0 | 1.0 | 0.00 | 0.01 | 0.01 | 94 | 1018.1 |
| 20260901173022 | 65 | 1 | 0.0 | 5.0 | 0.00 | 0.01 | 0.01 | 95 | 1018.1 |
| 20260901172507 | 65 | 30 | 0.0 | 5.0 | 0.00 | 0.01 | 0.01 | 95 | 1018.2 |
| 20260901172013 | 65 | 8 | 0.0 | 0.0 | 0.00 | 0.01 | 0.01 | 95 | 1018.2 |
| 20260901171525 | 65 | 8 | 0.0 | 0.0 | 0.00 | 0.01 | 0.01 | 94 | 1018.2 |
| 20260901171010 | 65 | 8 | 0.0 | 0.0 | 0.00 | 0.01 | 0.01 | 94 | 1018.2 |
| 20260901170512 | 65 | 359 | 0.0 | 0.0 | 0.00 | 0.01 | 0.01 | 95 | 1018.3 |
| 20260901170027 | 64 | 6 | 0.0 | 4.0 | 0.00 | 0.01 | 0.01 | 95 | 1018.3 |
| 20260901165514 | 64 | 6 | 0.0 | 4.0 | 0.00 | 0.01 | 0.01 | 94 | 1018.3 |
| 20260901165005 | 65 | 50 | 0.0 | 3.0 | 0.00 | 0.01 | 0.01 | 94 | 1018.4 |
| 20260901164528 | 65 | 360 | 0.0 | 0.0 | 0.00 | 0.01 | 0.01 | 94 | 1018.4 |
| 20260901164004 | 65 | 360 | 0.0 | 0.0 | 0.00 | 0.01 | 0.01 | 94 | 1018.5 |
| 20260901163506 | 65 | 360 | 0.0 | 2.0 | 0.00 | 0.01 | 0.01 | 94 | 1018.4 |
| 20260901163012 | 65 | 360 | 0.0 | 5.0 | 0.00 | 0.01 | 0.01 | 94 | 1018.5 |
| 20260901162505 | 65 | 1 | 1.0 | 5.0 | 0.00 | 0.01 | 0.01 | 94 | 1018.5 |
| 20260901162012 | 65 | 1 | 0.0 | 1.0 | 0.00 | 0.01 | 0.01 | 94 | 1018.6 |
| 20260901161541 | 65 | 1 | 0.0 | 0.0 | 0.00 | 0.01 | 0.01 | 94 | 1018.6 |
| 20260901161009 | 65 | 360 | 0.0 | 7.0 | 0.00 | 0.01 | 0.01 | 94 | 1018.6 |
| 20260901160514 | 65 | 360 | 0.0 | 7.0 | 0.00 | 0.01 | 0.01 | 94 | 1018.5 |
| 20260901160023 | 65 | 354 | 2.0 | 7.0 | 0.00 | 0.01 | 0.01 | 95 | 1018.5 |
| 20260901155520 | 65 | 343 | 0.0 | 0.0 | 0.00 | 0.01 | 0.01 | 95 | 1018.3 |
| 20260901155012 | 65 | 328 | 0.0 | 0.0 | 0.00 | 0.01 | 0.01 | 95 | 1018.3 |
| 20260901154527 | 65 | 328 | 0.0 | 3.0 | 0.00 | 0.01 | 0.01 | 95 | 1018.2 |